sat.trackr.live / text

‹ back to catalog

STARLINK-34623

NORAD 65018 · 2025-161D

PAYLOAD ACTIVE UNKNOWN

§ Identity

Operator
Country
US
Launch date
2025-07-30
Launch site
AFWTR
Launch vehicle
Mass (kg)
RCS (m²)

Purposes: comms

External: N2YO · Heavens-Above · Gunter

§ Orbital elements

Epoch: 2026-09-20T21:50:54.360960Z

Period
93.85 min
Inclination
53.1541°
Eccentricity
0.0002029
Mean motion
15.34417806 rev/d
Perigee alt
461.3 km
Apogee alt
464.0 km
Semi-major
6,840.8 km
B*
7.5826e-4
RAAN
105.6785°
Arg perigee
91.3591°
Mean anomaly
268.7644°
Rev number
6,524

§ Raw data

STARLINK-346231 65018U 25161D   26263.91035140  .00025344  00000+0  75826-3 0  99952 65018  53.1541 105.6785 0002029  91.3591 268.7644 15.34417806 65247

JSON: /api/v1/satellites/65018 · /tle

For live sub-satellite position, see the globe view (requires WebGL).

§ Visibility from observer

Set your observer location to see the next 7 days of passes ≥ 10°. The values pass through the URL so the page stays shareable.

No JS? Fill the form by hand. The geolocation button needs JavaScript.